This demonstration page uses our WeatherBlox Daily Observations layout. Learn more.

Left ArrowRight Arrow

34.16533, -84.80231

Hourly Observations for October 25, 2020

Temp ( °F °C ) Dew Point ( °F °C ) Humidity (%) Winds ( mph kmh ) Pressure ( in mb ) Visibility ( mi km ) Precip ( " mm )
12:25 am 00:25 Cloudy 67 19.4 64 17.8 91 91 ENE 6 9 29.93 1014 10 16 0.00 0.00
12:34 am 00:34 Cloudy 67 19.4 64 17.8 91 91 ENE 5 7 29.93 1014 10 16 0.00 0.00
12:53 am 00:53 Cloudy 67 19.4 64 17.8 91 91 Calm 29.91 1013 10 16 0.00 0.00
1:53 am 01:53 Cloudy 67 19.4 65 18.3 93 93 Calm 29.90 1013 10 16 0.00 0.00
2:53 am 02:53 Cloudy 67 19.4 64 17.8 91 91 Calm 29.90 1012 10 16 0.00 0.00
3:53 am 03:53 Cloudy 67 19.4 65 18.3 93 93 Calm 29.90 1013 10 16 0.00 0.00
4:07 am 04:07 Cloudy 67 19.4 65 18.3 93 93 Calm 29.91 1013 9 14 0.00 0.00
4:40 am 04:40 Cloudy 67 19.4 65 18.3 93 93 Calm 29.91 1013 9 14 0.00 0.00
4:53 am 04:53 Cloudy 67 19.4 65 18.3 93 93 Calm 29.90 1013 7 11 0.00 0.00
5:13 am 05:13 Cloudy with Mist and Fog 67 19.4 65 18.3 93 93 Calm 29.91 1013 6 10 0.00 0.00
5:53 am 05:53 Cloudy 67 19.4 64 17.8 91 91 Calm 29.90 1013 9 14 0.00 0.00
6:01 am 06:01 Cloudy 67 19.4 64 17.8 91 91 Calm 29.92 1013 9 14 0.00 0.00
6:47 am 06:47 Cloudy with Mist and Fog 66 19 64 18 94 94 Calm 29.94 1014 5 8 0.00 0.00
6:53 am 06:53 Cloudy with Mist and Fog 67 19.4 65 18.3 93 93 Calm 29.92 1013 4 6 0.00 0.00
7:03 am 07:03 Cloudy with Light Rain 67 19.4 64 17.8 91 91 Calm 29.93 1014 4 6 0.00 0.00
7:12 am 07:12 Cloudy 67 19.4 64 17.8 91 91 Calm 29.94 1014 7 11 0.00 0.00
7:26 am 07:26 Cloudy 67 19.4 64 17.8 91 91 Calm 29.94 1014 9 14 0.00 0.00
7:36 am 07:36 Cloudy 67 19.4 64 17.8 91 91 Calm 29.94 1014 9 14 0.00 0.00
7:53 am 07:53 Cloudy 67 19.4 64 17.8 91 91 NE 3 6 29.93 1014 10 16 0.00 0.00
8:29 am 08:29 Cloudy 67 19.4 64 17.8 91 91 N 3 6 29.95 1014 7 11 0.00 0.00
8:53 am 08:53 Cloudy with Mist and Fog 67 19.4 64 17.8 91 91 N 3 6 29.95 1014 5 8 0.00 0.00
9:33 am 09:33 Cloudy 68 20 64 17.8 87 87 N 3 6 29.97 1015 9 14 0.00 0.00
9:53 am 09:53 Cloudy 68 20 64 17.8 87 87 NE 3 6 29.96 1015 10 16 0.00 0.00
10:29 am 10:29 Cloudy 70 21.1 64 17.8 82 82 NNE 3 6 29.98 1015 10 16 0.00 0.00
10:36 am 10:36 Cloudy 70 21.1 65 18.3 84 84 Calm 29.98 1015 10 16 0.00 0.00
10:53 am 10:53 Cloudy 70 21.1 64 17.8 82 82 N 3 6 29.96 1015 10 16 0.00 0.00
11:13 am 11:13 Cloudy 70 21.1 64 17.8 82 82 Calm 29.98 1015 10 16 0.00 0.00
11:53 am 11:53 Cloudy 71 21.7 64 17.8 79 79 ENE 3 6 29.97 1015 10 16 0.00 0.00
12:53 pm 12:53 Cloudy 72 22.2 64 17.8 76 76 N 5 7 29.97 1015 10 16 0.00 0.00
1:03 pm 13:03 Cloudy 71 21.7 64 17.8 79 79 NNW 5 7 29.98 1015 10 16 0.00 0.00
1:11 pm 13:11 Mostly Cloudy 71 21.7 64 17.8 79 79 Calm 29.98 1015 10 16 0.00 0.00
1:53 pm 13:53 Cloudy 72 22.2 64 17.8 76 76 Calm 29.95 1014 10 16 0.00 0.00
2:07 pm 14:07 Cloudy 72 22.2 64 17.8 76 76 Calm 29.95 1014 10 16 0.00 0.00
2:27 pm 14:27 Cloudy 73 22.8 64 17.8 74 74 N 5 7 29.95 1014 10 16 0.00 0.00
2:34 pm 14:34 Cloudy 73 22.8 64 17.8 74 74 NNW 3 6 29.94 1014 10 16 0.00 0.00
2:42 pm 14:42 Cloudy 74 23.3 65 18.3 74 74 VRB 3 6 29.93 1014 10 16 0.00 0.00
2:53 pm 14:53 Cloudy 73 22.8 64 17.8 74 74 VRB 3 6 29.93 1013 10 16 0.00 0.00
3:29 pm 15:29 Cloudy 73 22.8 63 17.2 71 71 Calm 29.93 1013 10 16 0.00 0.00
3:53 pm 15:53 Cloudy 74 23.3 64 17.8 71 71 Calm 29.91 1013 10 16 0.00 0.00
4:16 pm 16:16 Cloudy 74 23.3 64 17.8 71 71 Calm 29.92 1013 10 16 0.00 0.00
4:53 pm 16:53 Cloudy 74 23.3 64 17.8 71 71 Calm 29.92 1013 10 16 0.00 0.00
5:53 pm 17:53 Cloudy 73 22.8 64 17.8 74 74 Calm 29.92 1013 9 14 0.00 0.00
6:53 pm 18:53 Mostly Cloudy 70 21.1 65 18.3 84 84 Calm 29.93 1014 10 16 0.00 0.00
7:53 pm 19:53 Clear 65 18.3 63 17.2 93 93 SSE 3 6 29.96 1015 9 14 0.00 0.00
8:53 pm 20:53 Clear with Mist and Fog 65 18.3 63 17.2 93 93 Calm 29.96 1015 5 8 0.00 0.00
9:00 pm 21:00 Clear with Mist and Fog 64 17.8 62 16.7 93 93 Calm 29.98 1015 2 3 0.00 0.00
9:07 pm 21:07 Clear with Mist and Fog 64 17.8 62 16.7 93 93 Calm 29.99 1016 4 6 0.00 0.00
9:53 pm 21:53 Cloudy 65 18.3 63 17.2 93 93 Calm 29.98 1015 9 14 0.00 0.00
10:53 pm 22:53 Cloudy 66 18.9 63 17.2 90 90 Calm 29.99 1016 8 13 0.00 0.00
11:23 pm 23:23 Cloudy 66 18.9 63 17.2 90 90 Calm 30.02 1016 9 14 0.00 0.00
11:53 pm 23:53 Cloudy 66 18.9 63 17.2 90 90 Calm 30.00 1016 9 14 0.00 0.00

Powered by AerisWeather